Change the Weather History Date:

Monday, March 25, 2013

  Actual Average Record
Temperature  
Mean Temperature 37 °F -  
Max Temperature 39 °F 55 °F 69 °F (2011)
Min Temperature 35 °F 37 °F 30 °F (1998)
Degree Days  
Heating Degree Days 28    
Moisture  
Dew Point 33 °F    
Average Humidity 83    
Maximum Humidity 100    
Minimum Humidity 68    
Precipitation  
Precipitation 0.01 in 0.08 in - ()
Sea Level Pressure  
Sea Level Pressure 29.67 in    
Wind  
Wind Speed 6 mph ()    
Max Wind Speed 12 mph    
Max Gust Speed -    
Visibility 3.0 miles    
Events Rain , Snow    
Averages and records for this station are not official NWS values.
T = Trace of Precipitation, MM = Missing Value Source: Averaged Metar Reports

Daily Weather History Graph

Daily Weather History Graph

Search for Another Location

Airport or City:

Trip Planner

Search our weather history database for the weather conditions in past years. The results will help you decide how hot, cold, wet, or windy it might be!

Date:

Astronomy

Mar. 25, 2013 Rise Set
Actual Time 6:28 AM CET 6:54 PM CET
Civil Twilight 5:58 AM CET 7:24 PM CET
Nautical Twilight 5:23 AM CET 8:00 PM CET
Astronomical Twilight 4:46 AM CET 8:37 PM CET
Moon 5:05 PM CET (3/25) 5:09 AM CET (3/25)
Length of Visible Light 13h 26m
Length of Day
12h 26m
Waxing Gibbous, 95% of the Moon is Illuminated
Mar 25
Waxing Gibbous
Mar 27
Full
Apr 3
Last Quarter
Apr 10
New
Apr 18
First Quarter

Hourly Weather History & Observations

Time (CET) Temp. Windchill Dew Point Humidity Pressure Visibility Wind Dir Wind Speed Gust Speed Precip Events Conditions
12:00 AM 36 °F - 32 °F 78% 29.72 in - NE 11.5 mph - -  
12:20 AM 35.6 °F 28.0 °F 32.0 °F 87% 29.65 in 3.1 mi NE 10.4 mph - N/A Rain , Snow Light Rain
12:50 AM 35.6 °F 28.0 °F 32.0 °F 87% 29.65 in 3.1 mi NE 10.4 mph - N/A Rain Light Rain
1:00 AM 36 °F - 31 °F 76% 29.72 in 3 mi NE 10.4 mph - - Snow Light Snow
1:20 AM 35.6 °F 28.0 °F 32.0 °F 87% 29.65 in 3.1 mi NE 10.4 mph - N/A Rain Light Rain
1:50 AM 35.6 °F 28.6 °F 32.0 °F 87% 29.65 in 3.1 mi NE 9.2 mph - N/A Rain Light Rain
2:00 AM 36 °F - 32 °F 80% 29.71 in - NE 10.4 mph - -  
2:50 AM 35.6 °F 29.9 °F 32.0 °F 87% 29.65 in 2.5 mi ENE 6.9 mph - N/A Rain Light Rain
3:00 AM 35 °F - 32 °F 86% 29.70 in - NE 9.2 mph - -  
3:20 AM 35.6 °F 29.2 °F 32.0 °F 87% 29.65 in 2.5 mi NE 8.1 mph - N/A Rain Light Rain
3:50 AM 35.6 °F 29.9 °F 32.0 °F 87% 29.65 in 2.5 mi NE 6.9 mph - N/A Rain Light Rain
4:20 AM 35.6 °F 29.9 °F 32.0 °F 87% 29.65 in 2.5 mi ENE 6.9 mph - N/A Rain Light Rain
4:50 AM 35.6 °F - 33.8 °F 93% 29.65 in 2.5 mi Variable 2.3 mph - N/A Rain Light Rain
5:00 AM 35 °F - 33 °F 91% 29.71 in - North 2.3 mph - -  
5:20 AM 33.8 °F - 33.8 °F 100% 29.65 in 2.2 mi Variable 1.2 mph - N/A Rain Light Rain
5:50 AM 35.6 °F - 33.8 °F 93% 29.65 in 2.2 mi Variable 1.2 mph - N/A Rain Light Rain
6:00 AM 35 °F - 33 °F 90% 29.71 in - North 2.3 mph - -  
6:20 AM 35.6 °F - 33.8 °F 93% 29.65 in 2.2 mi Variable 1.2 mph - N/A Rain Light Rain
6:50 AM 35.6 °F - 33.8 °F 93% 29.65 in 2.2 mi Variable 1.2 mph - N/A Rain Light Rain
7:00 AM 35 °F - 33 °F 90% 29.72 in 2 mi North 2.3 mph - - Rain Light Rain
7:20 AM 35.6 °F - 33.8 °F 93% 29.65 in 1.9 mi Variable 1.2 mph - N/A Rain Light Rain
7:50 AM 35.6 °F 31.7 °F 33.8 °F 93% 29.65 in 1.9 mi ENE 4.6 mph - N/A Rain Light Rain
8:00 AM 35 °F - 33 °F 88% 29.73 in - ENE 6.9 mph - -  
8:20 AM 35.6 °F 30.7 °F 33.8 °F 93% 29.68 in 1.9 mi ENE 5.8 mph - N/A Rain Light Rain
8:50 AM 35.6 °F 30.7 °F 33.8 °F 93% 29.68 in 1.9 mi ENE 5.8 mph - N/A   Overcast
9:00 AM 36 °F - 33 °F 82% 29.73 in - NE 6.9 mph - -  
9:20 AM 35.6 °F 29.9 °F 33.8 °F 93% 29.68 in 2.2 mi NE 6.9 mph - N/A   Overcast
9:50 AM 35.6 °F 30.7 °F 33.8 °F 93% 29.68 in 2.8 mi NE 5.8 mph - N/A   Overcast
10:20 AM 37.4 °F 33.8 °F 32.0 °F 81% 29.68 in 2.8 mi NE 4.6 mph - N/A   Overcast
10:50 AM 37.4 °F 33.8 °F 32.0 °F 81% 29.68 in 3.1 mi NE 4.6 mph - N/A   Overcast
11:00 AM 38 °F - 33 °F 74% 29.72 in - NNE 4.6 mph - -  
11:20 AM 37.4 °F 33.8 °F 32.0 °F 81% 29.68 in 3.1 mi ENE 4.6 mph - N/A   Overcast
11:50 AM 39.2 °F 37.0 °F 32.0 °F 75% 29.65 in 3.7 mi Variable 3.5 mph - N/A   Mostly Cloudy
12:00 PM 38 °F - 32 °F 71% 29.71 in - NNE 4.6 mph - -  
12:20 PM 39.2 °F 37.0 °F 32.0 °F 75% 29.65 in 3.7 mi Variable 3.5 mph - N/A   Overcast
12:50 PM 39.2 °F 37.0 °F 33.8 °F 81% 29.65 in 3.7 mi Variable 3.5 mph - N/A   Overcast
1:00 PM 39 °F - 33 °F 71% 29.70 in 4 mi NNE 4.6 mph - -   Mist
1:20 PM 39.2 °F 37.0 °F 32.0 °F 75% 29.65 in 3.7 mi NE 3.5 mph - N/A   Overcast
1:50 PM 39.2 °F 35.9 °F 32.0 °F 75% 29.65 in 3.7 mi ENE 4.6 mph - N/A   Overcast
2:00 PM 39 °F - 32 °F 68% 29.70 in - ENE 4.6 mph - -  
2:20 PM 39.2 °F 37.0 °F 33.8 °F 81% 29.65 in 3.7 mi Variable 3.5 mph - N/A   Overcast
2:50 PM 39.2 °F 37.0 °F 33.8 °F 81% 29.65 in 3.7 mi Variable 3.5 mph - N/A   Overcast
3:00 PM 39 °F - 32 °F 69% 29.70 in - North 2.3 mph - -  
3:20 PM 39.2 °F - 33.8 °F 81% 29.65 in 3.7 mi Variable 2.3 mph - N/A   Overcast
3:50 PM 39.2 °F 35.9 °F 33.8 °F 81% 29.65 in 3.7 mi NE 4.6 mph - N/A   Overcast
4:20 PM 39.2 °F 35.0 °F 33.8 °F 81% 29.65 in 3.7 mi NNE 5.8 mph - N/A   Overcast
4:50 PM 39.2 °F 35.0 °F 33.8 °F 81% 29.62 in 3.1 mi NE 5.8 mph - N/A   Overcast
5:00 PM 39 °F - 33 °F 72% 29.68 in - NE 6.9 mph - -  
5:20 PM 39.2 °F 35.0 °F 33.8 °F 81% 29.65 in 3.1 mi NNE 5.8 mph - N/A   Mostly Cloudy
5:50 PM 39.2 °F 35.0 °F 33.8 °F 81% 29.65 in 3.1 mi NNE 5.8 mph - N/A   Mostly Cloudy
6:00 PM 39 °F - 33 °F 72% 29.69 in - NNE 6.9 mph - -  
6:20 PM 39.2 °F 34.2 °F 33.8 °F 81% 29.65 in 3.1 mi NNE 6.9 mph - N/A   Mostly Cloudy
6:50 PM 39.2 °F 34.2 °F 33.8 °F 81% 29.65 in 3.1 mi NE 6.9 mph - N/A   Overcast
7:00 PM 38 °F - 32 °F 72% 29.70 in 3 mi NE 6.9 mph - -   Mist
7:20 PM 37.4 °F 32.1 °F 33.8 °F 87% 29.65 in 3.1 mi NE 6.9 mph - N/A   Overcast
7:50 PM 37.4 °F 31.4 °F 33.8 °F 87% 29.65 in 3.1 mi NE 8.1 mph - N/A Rain Overcast
8:00 PM 38 °F - 33 °F 76% 29.71 in - NE 9.2 mph - -  
8:20 PM 37.4 °F 30.8 °F 33.8 °F 87% 29.65 in 3.1 mi NE 9.2 mph - N/A Rain Overcast
8:50 PM 37.4 °F 32.1 °F 33.8 °F 87% 29.65 in 3.1 mi NE 6.9 mph - N/A Rain Light Rain
9:00 PM 38 °F - 34 °F 80% 29.71 in - NE 11.5 mph - -  
9:20 PM 37.4 °F 30.8 °F 33.8 °F 87% 29.65 in 3.1 mi NE 9.2 mph - N/A Rain Light Rain
9:50 PM 37.4 °F 32.8 °F 32.0 °F 81% 29.65 in 3.1 mi NNE 5.8 mph - N/A   Overcast
10:20 PM 37.4 °F 31.4 °F 32.0 °F 81% 29.65 in 3.1 mi NE 8.1 mph - N/A   Overcast
10:50 PM 37.4 °F 30.8 °F 32.0 °F 81% 29.65 in 3.7 mi ENE 9.2 mph - N/A   Overcast
11:00 PM 37 °F - 32 °F 74% 29.70 in - NE 8.1 mph - -  
11:20 PM 37.4 °F 31.4 °F 32.0 °F 81% 29.65 in 3.7 mi NE 8.1 mph - N/A   Overcast
11:50 PM 37.4 °F 31.4 °F 32.0 °F 81% 29.65 in 3.7 mi NE 8.1 mph - N/A   Overcast